Springfield, OH

6:51 PM EDT on June 23, 2017 (GMT -0400)
Springfield-Beckley Municipal

Weather History for KSGH - October, 2013

Change the Weather History Date:

Thursday, October 3, 2013

  Actual Average (KFFO) Record (KFFO)
Temperature  
Mean Temperature 70 °F -  
Max Temperature 77 °F 68 °F 87 °F (2005)
Min Temperature 62 °F 44 °F 33 °F (2003)
Cooling Degree Days 4    
Growing Degree Days 20 (Base 50)    
Moisture  
Dew Point 66 °F    
Average Humidity 97    
Maximum Humidity 100    
Minimum Humidity 76    
Precipitation  
Precipitation 0.64 in - - ()
Sea Level Pressure  
Sea Level Pressure 30.09 in    
Wind  
Wind Speed 4 mph (SSW)    
Max Wind Speed 17 mph    
Max Gust Speed 18 mph    
Visibility 2 miles    
Events Fog , Rain , Thunderstorm    
Averages and records for this station are not official NWS values.
T = Trace of Precipitation, MM = Missing Value Source: NWS Daily Summary

Daily Weather History Graph

Daily Weather History Graph

Search for Another Location

Airport or City:

Trip Planner

Search our weather history database for the weather conditions in past years. The results will help you decide how hot, cold, wet, or windy it might be!

Date:

Astronomy

Oct. 03, 2013 Rise Set
Actual Time 7:33 AM EDT 7:14 PM EDT
Civil Twilight 7:06 AM EDT 7:41 PM EDT
Nautical Twilight 6:35 AM EDT 8:12 PM EDT
Astronomical Twilight 6:03 AM EDT 8:43 PM EDT
Moon 6:06 AM EDT (10/3) 6:22 PM EDT (10/3)
Length of Visible Light 12h 34m
Length of Day
11h 40m
Waning Crescent, 2% of the Moon is Illuminated
Oct 3
Waning Crescent
Oct 4
New
Oct 11
First Quarter
Oct 18
Full
Oct 26
Last Quarter

Hourly Weather History & Observations

Time (EDT) Temp. Dew Point Humidity Pressure Visibility Wind Dir Wind Speed Gust Speed Precip Events Conditions
12:56 AM 63.9 °F 63.9 °F 100% 30.08 in 2.0 mi South 4.6 mph - N/A   Clear
1:26 AM 64.4 °F 64.4 °F 100% 30.09 in 1.8 mi South 3.5 mph - N/A   Clear
1:35 AM 64.4 °F 64.4 °F 100% 30.09 in 2.0 mi Calm Calm - N/A   Clear
1:56 AM 63.9 °F 63.9 °F 100% 30.07 in 1.8 mi Calm Calm - N/A   Mostly Cloudy
2:56 AM 64.9 °F 64.9 °F 100% 30.06 in 1.8 mi South 3.5 mph - N/A   Clear
3:56 AM 64.9 °F 64.9 °F 100% 30.05 in 1.8 mi Calm Calm - N/A   Mostly Cloudy
4:22 AM 64.4 °F 64.4 °F 100% 30.08 in 1.2 mi Calm Calm - N/A   Mostly Cloudy
4:36 AM 64.4 °F 64.4 °F 100% 30.08 in 1.0 mi Calm Calm - N/A   Mostly Cloudy
4:40 AM 62.6 °F 62.6 °F 100% 30.08 in 0.5 mi Calm Calm - N/A Fog Fog
4:43 AM 62.6 °F 62.6 °F 100% 30.08 in 0.2 mi Calm Calm - N/A Fog Fog
4:56 AM 63.0 °F 63.0 °F 100% 30.06 in 0.5 mi Calm Calm - N/A Fog Fog
5:03 AM 62.6 °F 62.6 °F 100% 30.08 in 1.0 mi Calm Calm - N/A   Mostly Cloudy
5:12 AM 62.6 °F 62.6 °F 100% 30.09 in 0.8 mi Calm Calm - N/A   Mist
5:24 AM 64.4 °F 64.4 °F 100% 30.08 in 1.0 mi Calm Calm - N/A   Mist
5:28 AM 62.6 °F 62.6 °F 100% 30.08 in 0.5 mi Calm Calm - N/A Fog Fog
5:32 AM 62.6 °F 62.6 °F 100% 30.08 in 0.2 mi SSE 3.5 mph - N/A Fog Fog
5:48 AM 62.6 °F 62.6 °F 100% 30.09 in 0.5 mi Calm Calm - N/A Fog Fog
5:56 AM 63.9 °F 63.9 °F 100% 30.07 in 0.8 mi South 3.5 mph - N/A   Overcast
6:05 AM 64.4 °F 64.4 °F 100% 30.09 in 1.0 mi South 3.5 mph - N/A   Overcast
6:56 AM 66.9 °F 66.9 °F 100% 30.08 in 1.0 mi SSW 6.9 mph - N/A   Overcast
7:01 AM 66.2 °F 66.2 °F 100% 30.09 in 0.5 mi SSW 5.8 mph - N/A Fog Fog
7:13 AM 66.2 °F 66.2 °F 100% 30.10 in 0.2 mi SSW 6.9 mph - N/A Fog Fog
7:29 AM 66.2 °F 66.2 °F 100% 30.10 in 0.8 mi SSW 6.9 mph - N/A   Overcast
7:35 AM 66.2 °F 66.2 °F 100% 30.10 in 1.2 mi SSW 6.9 mph - 0.00 in Rain Light Rain
7:56 AM 66.9 °F 66.9 °F 100% 30.09 in 1.2 mi SSW 4.6 mph - 0.00 in Rain Light Rain
8:00 AM 66.2 °F 66.2 °F 100% 30.11 in 1.0 mi SSW 5.8 mph - 0.00 in Rain Light Rain
8:16 AM 66.2 °F 66.2 °F 100% 30.11 in 1.2 mi SSW 6.9 mph - 0.00 in Rain Light Rain
8:24 AM 66.2 °F 66.2 °F 100% 30.11 in 1.2 mi SSW 5.8 mph - 0.00 in   Mostly Cloudy
8:44 AM 66.2 °F 66.2 °F 100% 30.12 in 1.5 mi SW 6.9 mph - 0.00 in   Mostly Cloudy
8:56 AM 68.0 °F 68.0 °F 100% 30.11 in 1.5 mi SSW 5.8 mph - 0.00 in Rain Light Rain
9:12 AM 68.0 °F 68.0 °F 100% 30.12 in 1.2 mi SSW 5.8 mph - 0.02 in Rain Rain
9:20 AM 68.0 °F 68.0 °F 100% 30.13 in 1.8 mi SSW 5.8 mph - 0.02 in Rain Light Rain
9:28 AM 68.0 °F 68.0 °F 100% 30.12 in 2.5 mi SSW 6.9 mph - 0.02 in Rain Light Rain
9:36 AM 69.8 °F 68.0 °F 94% 30.12 in 3.0 mi SSW 6.9 mph - 0.03 in Rain Light Rain
9:39 AM 69.8 °F 68.0 °F 94% 30.12 in 2.5 mi SSW 6.9 mph - 0.03 in Rain Light Rain
9:56 AM 68.9 °F 68.0 °F 97% 30.11 in 2.5 mi SSW 6.9 mph - 0.03 in Rain Light Rain
10:04 AM 68.0 °F 68.0 °F 100% 30.12 in 2.0 mi SSW 8.1 mph - 0.01 in Rain Light Rain
10:16 AM 68.0 °F 66.2 °F 94% 30.12 in 2.0 mi SW 5.8 mph - 0.02 in Rain Light Rain
10:49 AM 68.0 °F 66.2 °F 94% 30.12 in 1.5 mi South 3.5 mph - 0.08 in Rain Rain
10:56 AM 68.0 °F 66.9 °F 96% 30.10 in 2.0 mi Calm Calm - 0.09 in Rain Light Rain
11:07 AM 68.0 °F 68.0 °F 100% 30.12 in 3.0 mi Calm Calm - 0.01 in Rain Light Rain
11:56 AM 72.0 °F 70.0 °F 93% 30.09 in 7.0 mi SW 6.9 mph - 0.01 in   Scattered Clouds
12:56 PM 77.0 °F 68.9 °F 76% 30.09 in 7.0 mi SW 8.1 mph - N/A   Scattered Clouds
1:09 PM 75.2 °F 69.8 °F 83% 30.11 in 7.0 mi WSW 12.7 mph - N/A Thunderstorm Mostly Cloudy
1:14 PM 73.4 °F 69.8 °F 88% 30.11 in 2.5 mi SW 10.4 mph - 0.00 in Rain , Thunderstorm Thunderstorms and Rain
1:20 PM 71.6 °F 69.8 °F 94% 30.12 in 1.2 mi WSW 15.0 mph 18.4 mph 0.05 in Rain , Thunderstorm Thunderstorms and Rain
1:22 PM 71.6 °F 69.8 °F 94% 30.12 in 0.8 mi WSW 17.3 mph - 0.09 in Rain , Thunderstorm Heavy Thunderstorms and Rain
1:28 PM 68.0 °F 64.4 °F 88% 30.12 in 0.5 mi WSW 12.7 mph - 0.23 in Fog , Rain , Thunderstorm Heavy Thunderstorms and Rain
1:31 PM 66.2 °F 64.4 °F 94% 30.12 in 0.5 mi WSW 9.2 mph - 0.32 in Fog , Rain Rain
1:43 PM 66.2 °F 66.2 °F 100% 30.11 in 1.0 mi SW 8.1 mph - 0.43 in Rain Rain
1:48 PM 66.2 °F 66.2 °F 100% 30.11 in 1.5 mi SW 6.9 mph - 0.43 in Rain Rain
1:56 PM 68.9 °F 68.0 °F 97% 30.09 in 2.0 mi SW 6.9 mph - 0.44 in Rain Light Rain
2:04 PM 69.8 °F 68.0 °F 94% 30.10 in 3.0 mi WSW 8.1 mph - 0.01 in Rain Light Rain
2:11 PM 69.8 °F 68.0 °F 94% 30.10 in 5.0 mi WSW 9.2 mph - 0.01 in Rain Light Rain
2:56 PM 70.9 °F 68.9 °F 93% 30.08 in 6.0 mi WSW 9.2 mph - 0.01 in   Scattered Clouds
3:16 PM 69.8 °F 69.8 °F 100% 30.08 in 1.8 mi SW 5.8 mph - 0.02 in Rain Light Rain
3:29 PM 69.8 °F 69.8 °F 100% 30.08 in 1.8 mi SSW 5.8 mph - 0.03 in Rain Light Rain
3:47 PM 69.8 °F 68.0 °F 94% 30.06 in 2.5 mi SSW 4.6 mph - 0.06 in Rain Light Rain
3:56 PM 70.9 °F 70.0 °F 97% 30.04 in 5.0 mi South 4.6 mph - 0.06 in Rain Light Rain
4:56 PM 72.9 °F 68.0 °F 85% 30.04 in 8.0 mi South 5.8 mph - 0.00 in   Scattered Clouds
5:56 PM 73.9 °F 68.0 °F 82% 30.03 in 7.0 mi SSE 4.6 mph - N/A   Clear
6:56 PM 72.9 °F 66.9 °F 82% 30.03 in 8.0 mi South 3.5 mph - N/A   Clear
7:56 PM 66.9 °F 65.8 °F 96% 30.04 in 8.0 mi Calm Calm - N/A   Clear
8:56 PM 68.9 °F 66.9 °F 93% 30.04 in 7.0 mi South 5.8 mph - N/A   Partly Cloudy
9:56 PM 68.0 °F 66.9 °F 96% 30.06 in 5.0 mi South 5.8 mph - N/A   Clear
10:56 PM 68.9 °F 68.0 °F 97% 30.06 in 6.0 mi South 8.1 mph - N/A   Clear